User: anonymous
Location: SAPM � Hemmingford
(45.0500°N, 73.5833°W)
Time: 20:09:35
(UTC-04:00)
Language:

Iridium 75 - Orbit

View from above orbital plane
View from above orbital plane
View from above satellite
View from above satellite

Ground track
Ground track

The orbit data is extracted from the following two-line orbital elements,

1 25346U 98032E   14264.50928373  .00000080  00000-0  21654-4 0  9907
2 25346 086.3919 281.9376 0002324 106.0487 004.2934 14.34216446856388
Epoch (UTC): 21 September 2014 12:13:22
Eccentricity: 0.0002324
inclination: 86.3919°
perigee height: 776 km
apogee height: 779 km
right ascension of ascending node: 281.9376°
argument of perigee: 106.0487°
revolutions per day: 14.34216446
mean anomaly at epoch: 4.2934°
orbit number at epoch: 85638

The dashed part of the orbit path shows where the satellite is in the earth's shadow,  

DLR